Location: Newark
(44.6768°N, 22.5302°E)
Time: 01:54:02
(UTC+00:00)

ZACube-1 - Pass Details

Date: 29 June 2022
Orbit: 582 x 661 km, 97.6° (Epoch: 08 August)

Event Time Altitude Azimuth Distance (km) Brightness Sun altitude
Rises 01:35:23 0° 24° (NNE) 2,940 ? -10.4°
Reaches altitude 10° 01:37:54 10° 38° (NE) 2,040 ? -10.1°
Maximum altitude 01:41:37 25° 94° (E) 1,298 ? -9.6°
Drops below altitude 10° 01:45:20 10° 150° (SSE) 2,058 ? -9.2°
Sets 01:47:53 0° 164° (SSE) 2,971 ? -8.9°
